Location: Andershausen
(51.8462°N, 9.8595°E)
Time: 06:36:02
(UTC+00:00)

COSMO-SKYMED 1 - Pass Details

Date: 18 November 2025
Orbit: 579 x 581 km, 97.9° (Epoch: 11 December)

Event Time Altitude Azimuth Distance (km) Brightness Sun altitude
Exits shadow 17:26:40 41° 91° (E) 847 2.7 -18.3°
Maximum altitude 17:26:51 42° 98° (E) 842 2.8 -18.3°
Drops below altitude 10° 17:30:45 10° 170° (S) 1,892 5.0 -18.9°
Sets 17:32:59 0° 178° (S) 2,786 6.0 -19.3°
